Location: Staunton
(38.1490°N, 79.0720°W)
Time: 03:28:26
(UTC-04:00)

ISS - Pass Details

Date: 18 September 2017
Orbit: 401 x 407 km, 51.6° (Epoch: 23 September)

Event Time Altitude Azimuth Distance (km) Brightness Sun altitude
Exits shadow 06:05:53 - 314° (NW) 1,783 -0.9 -11.5°
Reaches altitude 10° 06:06:40 10° 316° (NW) 1,468 -1.3 -11.4°
Maximum altitude 06:09:55 59° 37° (NE) 475 -3.3 -10.8°
Drops below altitude 10° 06:13:10 10° 118° (ESE) 1,460 -0.2 -10.1°
Sets 06:15:15 0° 122° (ESE) 2,316 0.8 -9.7°
